EW6799 Weather Reports


time (UTC)temp
F
wind
direction
speed
knots
gust
knots
rain 1hr
in
rain 24hr
in
rain mn
in
humidity
%
barometer
mb
20220629005903 73 107 0.0 0.0 0.00 0.00 0.00 81 1015.8
20220629005403 73 107 0.0 0.0 0.00 0.00 0.00 81 1015.9
20220629004903 73 107 0.0 0.0 0.00 0.00 0.00 82 1016.1
20220629004403 73 57 0.0 0.0 0.00 0.00 0.00 82 1016.1
20220629003403 73 52 0.0 0.0 0.00 0.00 0.00 83 1016.2
20220629002903 73 52 0.0 0.0 0.00 0.00 0.00 83 1016.2
20220629001903 73 51 0.0 0.0 0.00 0.00 0.00 83 1016.3
20220629001403 74 51 0.0 0.0 0.00 0.00 0.00 83 1016.3
20220629000904 74 51 0.0 0.0 0.00 0.00 0.00 83 1016.4
20220629000403 74 51 0.0 0.0 0.00 0.00 0.00 83 1016.5
20220628235903 74 51 0.0 0.0 0.00 0.00 0.00 83 1016.4
20220628235404 74 340 0.0 0.0 0.00 0.00 0.00 82 1016.5
20220628234404 74 342 0.0 0.0 0.00 0.00 0.00 82 1016.5
20220628233903 74 338 0.0 0.0 0.00 0.00 0.00 81 1016.5
20220628233403 74 295 0.0 0.0 0.00 0.00 0.00 81 1016.5
20220628232903 74 318 0.0 0.0 0.00 0.00 0.00 80 1016.5
20220628232403 74 331 0.0 0.0 0.00 0.00 0.00 80 1016.5
20220628230903 74 313 0.0 0.0 0.00 0.00 0.00 78 1016.4
20220628230403 74 300 0.0 0.0 0.00 0.00 0.00 78 1016.5
20220628225904 75 224 0.0 0.0 0.00 0.00 0.00 78 1016.5
20220628225403 75 231 0.0 0.0 0.00 0.00 0.00 78 1016.6
20220628224904 75 247 0.0 0.0 0.00 0.00 0.00 77 1016.6
20220628224403 75 256 0.9 4.3 0.00 0.00 0.00 77 1016.7
20220628223903 76 218 0.0 7.0 0.00 0.00 0.00 76 1016.7
20220628223403 76 252 1.7 7.0 0.00 0.00 0.00 75 1016.6
20220628222903 76 178 1.7 6.1 0.00 0.00 0.00 74 1016.7
20220628222403 76 248 0.0 0.0 0.00 0.00 0.00 73 1016.6
20220628221404 76 236 0.9 2.6 0.00 0.00 0.00 71 1016.6
20220628220904 76 268 0.0 0.0 0.00 0.00 0.00 70 1016.6
20220628220403 76 245 0.0 0.0 0.00 0.00 0.00 70 1016.5
20220628215404 76 258 0.0 0.0 0.00 0.00 0.00 69 1016.4
20220628214903 76 254 0.0 0.0 0.00 0.00 0.00 69 1016.3
20220628214403 77 253 0.0 0.0 0.00 0.00 0.00 68 1016.4
20220628213903 77 253 0.0 0.0 0.00 0.00 0.00 68 1016.3
20220628213404 77 253 0.0 0.0 0.00 0.00 0.00 68 1016.3
20220628212904 77 253 0.0 0.0 0.00 0.00 0.00 68 1016.3
20220628212403 77 253 0.0 0.0 0.00 0.00 0.00 68 1016.2
20220628211904 77 253 0.0 0.0 0.00 0.00 0.00 68 1016.2
20220628210904 77 229 0.0 0.0 0.00 0.00 0.00 67 1016.1
20220628210404 78 229 0.0 0.0 0.00 0.00 0.00 67 1016.2
20220628205904 78 229 0.0 0.0 0.00 0.00 0.00 67 1016.1
20220628204904 78 240 0.0 0.0 0.00 0.00 0.00 66 1015.9
20220628204404 78 240 0.0 0.0 0.00 0.00 0.00 65 1015.8
20220628203404 78 220 0.0 4.3 0.00 0.00 0.00 64 1015.7
20220628202903 79 252 3.5 5.2 0.00 0.00 0.00 62 1015.5
20220628202403 79 254 1.7 6.1 0.00 0.00 0.00 60 1015.4
20220628201904 79 144 0.0 2.6 0.00 0.00 0.00 58 1015.1
20220628201404 79 100 0.9 5.2 0.00 0.00 0.00 59 1014.9
20220628200904 79 31 0.9 2.6 0.00 0.00 0.00 59 1014.7
20220628195404 80 47 0.9 7.8 0.00 0.00 0.00 59 1014.3
20220628193404 80 81 1.7 6.1 0.00 0.00 0.00 57 1014.0
20220628192903 80 54 2.6 8.7 0.00 0.00 0.00 57 1014.0
20220628191903 81 49 4.3 8.7 0.00 0.00 0.00 56 1013.8
20220628191403 81 84 0.9 7.0 0.00 0.00 0.00 55 1013.7
20220628190903 81 61 6.1 11.3 0.00 0.00 0.00 55 1013.7
20220628185903 82 80 4.3 10.4 0.00 0.00 0.00 54 1013.6
20220628185404 82 62 2.6 11.3 0.00 0.00 0.00 53 1013.6
20220628184903 83 46 7.0 10.4 0.00 0.00 0.00 52 1013.5
20220628183904 83 62 5.2 11.3 0.00 0.00 0.00 52 1013.4
20220628183404 83 51 4.3 8.7 0.00 0.00 0.00 52 1013.3
20220628182904 83 347 0.9 8.7 0.00 0.00 0.00 53 1013.3
20220628182403 83 37 7.0 11.3 0.00 0.00 0.00 52 1013.3
20220628181404 84 44 6.1 12.2 0.00 0.00 0.00 50 1013.1
20220628180903 85 25 0.9 7.8 0.00 0.00 0.00 50 1013.1
20220628180404 85 42 2.6 8.7 0.00 0.00 0.00 49 1013.1
20220628175903 85 67 1.7 11.3 0.00 0.00 0.00 48 1013.0
20220628175404 85 39 6.1 13.0 0.00 0.00 0.00 49 1013.0
20220628174903 84 27 2.6 7.8 0.00 0.00 0.00 50 1013.0
20220628174403 84 356 1.7 7.0 0.00 0.00 0.00 50 1013.0
20220628173903 84 46 4.3 7.8 0.00 0.00 0.00 51 1013.0
20220628173404 84 9 2.6 11.3 0.00 0.00 0.00 51 1012.9
20220628172904 84 355 6.1 10.4 0.00 0.00 0.00 51 1012.9
20220628172403 84 14 3.5 12.2 0.00 0.00 0.00 51 1012.8
20220628171903 85 1 5.2 11.3 0.00 0.00 0.00 49 1012.8
20220628170903 85 21 4.3 13.9 0.00 0.00 0.00 48 1012.7
20220628170404 84 47 4.3 13.0 0.00 0.00 0.00 49 1012.7
20220628165904 84 6 4.3 11.3 0.00 0.00 0.00 50 1012.7
20220628165404 84 2 4.3 11.3 0.00 0.00 0.00 50 1012.8
20220628164904 83 24 4.3 13.0 0.00 0.00 0.00 51 1012.7
20220628164403 83 32 7.0 13.9 0.00 0.00 0.00 52 1012.8
20220628163903 83 34 1.7 11.3 0.00 0.00 0.00 53 1012.9
20220628163403 83 9 6.1 17.4 0.00 0.00 0.00 55 1013.0
20220628162904 83 26 7.0 12.2 0.00 0.00 0.00 56 1012.9
20220628162404 83 30 8.7 13.0 0.00 0.00 0.00 54 1013.0
20220628161903 82 58 6.1 12.2 0.00 0.00 0.00 55 1013.0
20220628160904 80 347 7.0 13.0 0.00 0.00 0.00 62 1013.0
20220628160403 80 357 8.7 13.9 0.00 0.00 0.00 64 1013.1
20220628155904 80 356 7.8 17.4 0.00 0.00 0.00 65 1013.2
20220628155404 81 5 7.8 13.0 0.00 0.00 0.00 63 1013.3
20220628154904 80 28 5.2 17.4 0.00 0.00 0.00 66 1013.4
20220628153904 80 0 7.8 20.9 0.00 0.00 0.00 65 1013.4
20220628152904 80 16 8.7 17.4 0.00 0.00 0.00 65 1013.4
20220628152404 79 353 12.2 19.1 0.00 0.00 0.00 67 1013.5
20220628151403 80 31 11.3 19.1 0.00 0.00 0.00 62 1013.7
20220628150904 80 358 8.7 15.6 0.00 0.00 0.00 64 1013.7
20220628150404 80 29 8.7 17.4 0.00 0.00 0.00 63 1013.7
20220628145403 80 15 7.8 14.8 0.00 0.00 0.00 63 1013.8
20220628144903 80 350 7.8 17.4 0.00 0.00 0.00 63 1013.8
20220628144404 81 8 7.8 17.4 0.00 0.00 0.00 61 1014.0
20220628143904 81 20 7.8 15.6 0.00 0.00 0.00 62 1014.0
20220628143404 80 9 6.1 13.0 0.00 0.00 0.00 62 1014.1
20220628141904 79 355 8.7 15.6 0.00 0.00 0.00 64 1014.4
20220628141404 79 4 11.3 19.1 0.00 0.00 0.00 62 1014.5
20220628140903 79 6 10.4 15.6 0.00 0.00 0.00 62 1014.5
20220628140403 79 1 7.8 15.6 0.00 0.00 0.00 65 1014.6
20220628135903 78 2 10.4 17.4 0.00 0.00 0.00 67 1014.7
20220628135402 78 356 12.2 20.9 0.00 0.00 0.00 66 1014.8
20220628134402 78 350 13.0 20.0 0.00 0.00 0.00 68 1014.9
20220628133902 78 10 11.3 20.9 0.00 0.00 0.00 67 1014.9
20220628133402 78 2 11.3 17.4 0.00 0.00 0.00 67 1015.0
20220628132903 78 9 11.3 18.2 0.00 0.00 0.00 67 1015.2
20220628132403 78 0 11.3 20.0 0.00 0.00 0.00 67 1015.2
20220628131402 78 11 10.4 18.2 0.00 0.00 0.00 67 1015.3
20220628130902 77 358 12.2 20.0 0.00 0.00 0.00 66 1015.4
20220628130402 77 2 10.4 18.2 0.00 0.00 0.00 68 1015.5
20220628125903 77 0 12.2 20.9 0.00 0.00 0.00 68 1015.5
20220628125403 77 352 11.3 14.8 0.00 0.00 0.00 69 1015.5
20220628124902 77 8 9.6 18.2 0.00 0.00 0.00 68 1015.6
20220628123402 77 17 8.7 17.4 0.00 0.00 0.00 68 1015.9
20220628122903 77 3 10.4 17.4 0.00 0.00 0.00 68 1015.8
20220628122403 78 356 7.0 15.6 0.00 0.00 0.00 68 1015.9
20220628121903 78 27 7.8 13.0 0.00 0.00 0.00 67 1015.9
20220628121403 78 9 8.7 14.8 0.00 0.00 0.00 67 1016.1
20220628120903 78 0 7.0 13.0 0.00 0.00 0.00 66 1016.1
20220628115903 77 20 7.8 13.0 0.00 0.00 0.00 67 1016.2
20220628115403 78 7 5.2 11.3 0.00 0.00 0.00 67 1016.3
20220628114903 78 18 5.2 10.4 0.00 0.00 0.00 67 1016.4
20220628114403 78 14 2.6 10.4 0.00 0.00 0.00 67 1016.4
20220628113402 78 9 5.2 10.4 0.00 0.00 0.00 67 1016.4
20220628112903 78 28 2.6 10.4 0.00 0.00 0.00 69 1016.5
20220628112403 77 334 6.1 13.9 0.00 0.00 0.00 68 1016.5
20220628111902 78 21 9.6 13.0 0.00 0.00 0.00 66 1016.5
20220628110902 78 353 4.3 10.4 0.00 0.00 0.00 65 1016.5
20220628105403 78 20 5.2 11.3 0.00 0.00 0.00 65 1016.8
20220628104903 78 356 5.2 10.4 0.00 0.00 0.00 64 1016.7
20220628104403 77 348 6.1 12.2 0.00 0.00 0.00 65 1016.8
20220628103403 77 19 7.8 12.2 0.00 0.00 0.00 65 1016.8
20220628102403 77 26 7.0 14.8 0.00 0.00 0.00 65 1016.8
20220628101402 77 1 5.2 12.2 0.00 0.00 0.00 66 1016.9
20220628100903 77 22 8.7 13.0 0.00 0.00 0.00 66 1016.8
20220628100402 77 18 7.8 12.2 0.00 0.00 0.00 65 1016.8
20220628095903 78 11 6.1 10.4 0.00 0.00 0.00 63 1016.8
20220628095403 77 26 3.5 8.7 0.00 0.00 0.00 65 1016.8
20220628094903 77 352 7.8 11.3 0.00 0.00 0.00 66 1016.8
20220628093903 77 352 6.1 11.3 0.00 0.00 0.00 65 1016.9
20220628093403 76 340 8.7 12.2 0.00 0.00 0.00 64 1016.9
20220628092902 76 345 5.2 11.3 0.00 0.00 0.00 64 1016.8
20220628092403 76 342 5.2 13.0 0.00 0.00 0.00 64 1016.8
20220628091903 76 352 7.8 13.0 0.00 0.00 0.00 64 1016.7
20220628091403 77 353 9.6 13.0 0.00 0.00 0.00 63 1016.7
20220628090903 78 354 7.8 12.2 0.00 0.00 0.00 62 1016.6
20220628090402 79 347 6.1 10.4 0.00 0.00 0.00 59 1016.7
20220628085403 80 79 1.7 6.1 0.00 0.00 0.00 52 1016.6
20220628084403 79 109 0.0 7.0 0.00 0.00 0.00 54 1016.6
20220628083903 78 141 0.9 4.3 0.00 0.00 0.00 57 1016.7
20220628083403 78 114 1.7 7.0 0.00 0.00 0.00 55 1016.6
20220628082902 78 105 1.7 6.1 0.00 0.00 0.00 55 1016.6
20220628082403 77 133 0.0 4.3 0.00 0.00 0.00 59 1016.7
20220628081903 78 122 1.7 5.2 0.00 0.00 0.00 58 1016.7
20220628081403 77 143 3.5 6.1 0.00 0.00 0.00 59 1016.6
20220628080903 77 174 1.7 6.1 0.00 0.00 0.00 60 1016.6
20220628080403 77 133 1.7 7.8 0.00 0.00 0.00 60 1016.7
20220628075902 76 138 1.7 5.2 0.00 0.00 0.00 62 1016.8
20220628074903 76 146 3.5 5.2 0.00 0.00 0.00 62 1017.0
20220628074403 76 131 0.9 7.0 0.00 0.00 0.00 63 1017.0
20220628073903 75 119 2.6 10.4 0.00 0.00 0.00 63 1017.0
20220628073403 75 109 1.7 7.8 0.00 0.00 0.00 64 1016.9
20220628072903 76 119 5.2 8.7 0.00 0.00 0.00 63 1016.9
20220628072403 75 135 0.0 0.0 0.00 0.00 0.00 64 1017.0
20220628071403 74 129 1.7 6.1 0.00 0.00 0.00 66 1017.0
20220628070904 74 123 2.6 7.0 0.00 0.00 0.00 67 1016.9
20220628065904 73 107 4.3 10.4 0.00 0.00 0.00 67 1016.9
20220628064403 73 117 4.3 10.4 0.00 0.00 0.00 69 1016.8
20220628063403 72 137 5.2 10.4 0.00 0.00 0.00 70 1016.8
20220628061903 72 121 6.1 11.3 0.00 0.00 0.00 70 1016.9
20220628061403 72 107 5.2 11.3 0.00 0.00 0.00 71 1017.0
20220628060904 71 131 5.2 12.2 0.00 0.00 0.00 71 1016.8
20220628060403 71 120 6.1 12.2 0.00 0.00 0.00 71 1016.8
20220628055903 71 111 5.2 12.2 0.00 0.00 0.00 71 1016.6
20220628055404 71 124 4.3 10.4 0.00 0.00 0.00 71 1016.6
20220628053903 71 115 7.0 11.3 0.00 0.00 0.00 71 1016.8
20220628052403 71 115 4.3 7.8 0.00 0.00 0.00 71 1016.7
20220628051903 71 117 1.7 10.4 0.00 0.00 0.00 71 1016.6
20220628051404 71 119 1.7 7.8 0.00 0.00 0.00 71 1016.7
20220628050403 71 117 2.6 6.1 0.00 0.00 0.00 71 1016.7
20220628045903 71 116 4.3 8.7 0.00 0.00 0.00 71 1016.8
20220628045403 71 120 0.9 8.7 0.00 0.00 0.00 70 1016.8
20220628044903 71 123 0.0 0.0 0.00 0.00 0.00 70 1016.6
20220628043903 71 129 0.0 0.0 0.00 0.00 0.00 71 1016.5
20220628043403 71 132 0.0 0.0 0.00 0.00 0.00 71 1016.5
20220628042903 71 150 0.0 5.2 0.00 0.00 0.00 70 1016.5
20220628042404 71 132 2.6 7.0 0.00 0.00 0.00 70 1016.5
20220628041403 71 119 4.3 7.8 0.00 0.00 0.00 69 1016.3
20220628040403 71 124 0.0 0.0 0.00 0.00 0.00 69 1016.2
20220628035903 71 124 0.0 0.0 0.00 0.00 0.00 69 1016.1
20220628034903 71 103 0.0 6.1 0.00 0.00 0.00 69 1016.0
20220628034403 71 116 3.5 6.1 0.00 0.00 0.00 69 1016.0
20220628033403 71 117 3.5 7.8 0.00 0.00 0.00 69 1015.8